Skip Page Navigation
NASA JPL Caltech
NASA Logo - Jet Propulsion Laboratory + View the NASA Portal
+ Center for Near-Earth Object Studies
JPL Home Earth Solar System Stars & Galaxies Technology
JPL Solar System Dynamics
BODIES ORBITS EPHEMERIDES TOOLS PHYSICAL DATA DISCOVERY FAQ SITE MAP
IMPORTANT: The SSD Announcement email list is now available. Major changes are coming in the near future, including possible hostname and/or URL changes. To be notified of such changes, subscribe to this email list.

Please visit this page for more details.


JPL Small-Body Database Browser
Search: [ help ]  
95503 (2002 EE43)
Classification: Outer Main-belt Asteroid          SPK-ID: 2095503
Ephemeris | Orbit Diagram | Orbital Elements | Mission Design | Physical Parameters | Discovery Circumstances | Close-Approach Data ]

[ show orbit diagram ]
Orbital Elements at Epoch 2459000.5 (2020-May-31.0) TDB
Reference: JPL 20 (heliocentric ecliptic J2000)
 Element Value Uncertainty (1-sigma)   Units 
e .1566144077953307 4.2278e-08  
a 3.202795269233073 2.6441e-08 au
q 2.701191384852449 1.3937e-07 au
i 4.699708175632249 6.0462e-06 deg
node 182.2535452789361 5.2355e-05 deg
peri 134.0640170308184 5.5364e-05 deg
M 300.6936321746326 1.9829e-05 deg
tp 2459345.398273547990
(2021-May-10.89827355)
0.00011741 TDB
period 2093.592695524469
5.73
2.5926e-05
7.098e-08
d
yr
n .1719532174379391 2.1294e-09 deg/d
Q 3.704399153613697 3.0582e-08 au
  Orbit Determination Parameters
   # obs. used (total)      715  
   data-arc span      8275 days (22.66 yr)  
   first obs. used      1997-05-31  
   last obs. used      2020-01-26  
   planetary ephem.      DE431  
   SB-pert. ephem.      SB431-N16  
   condition code      0  
   norm. resid. RMS      .56375  
   source      ORB  
   producer      Otto Matic  
   solution date      2020-Feb-23 23:46:01  

Additional Information
 Earth MOID = 1.69058 au 
 Jupiter MOID = 1.62926 au 
 T_jup = 3.169 
[ show covariance matrix ]

Ephemeris | Orbit Diagram | Orbital Elements | Mission Design | Physical Parameters | Discovery Circumstances | Close-Approach Data ]

Physical Parameter Table
Parameter Symbol Value Units Sigma Reference Notes
absolute magnitude H 14.5   n/a MPO468951  
diameter diameter 7.135 km 0.210 urn:nasa:pds:neowise_diameters_albedos::2.0[mainbelt] (http://adsabs.harvard.edu/abs/2011ApJ...741...68M)  
geometric albedo albedo 0.066   0.015 urn:nasa:pds:neowise_diameters_albedos::2.0[mainbelt] (http://adsabs.harvard.edu/abs/2011ApJ...741...68M)  

95503 (2002 EE43)          Discovered 2002-Mar-12 by LINEAR at Socorro
Reference: 20041028/Numbers.arcLast Updated: 2004-10-29

[ show close-approach data ]
Alternate Designations
 2002 EE43 = 1997 LH11 
Ephemeris | Orbit Diagram | Orbital Elements | Mission Design | Physical Parameters | Discovery Circumstances | Close-Approach Data ]
ABOUT SSD CREDITS/AWARDS PRIVACY/COPYRIGHT GLOSSARY LINKS
FirstGov 2020-Apr-02 00:36 UT
(server date/time)  
NASA Home Page
Site Manager:   Ryan S. Park
Webmaster  Alan B. Chamberlin